GW0500 Weather Reports


Display with metric or nautical units.
time (UTC)temp
F
wind
direction
speed
MPH
gust
MPH
rain 1hr
in
rain 24hr
in
rain mn
in
humidity
%
barometer
mb
20260506175545 61 156 1.0 5.0 0.00 0.07 0.02 62 1020.6
20260506175049 61 173 2.0 5.0 0.00 0.07 0.02 62 1020.6
20260506174553 61 180 0.0 5.0 0.00 0.07 0.02 63 1020.6
20260506174050 60 0 1.0 5.0 0.00 0.07 0.02 63 1020.8
20260506173548 60 176 2.0 5.0 0.00 0.07 0.02 60 1020.8
20260506173051 59 0 1.0 4.0 0.00 0.07 0.02 65 1020.7
20260506172545 59 190 1.0 4.0 0.00 0.07 0.02 63 1020.7
20260506172048 59 178 0.0 4.0 0.00 0.07 0.02 68 1020.6
20260506171559 58 212 0.0 4.0 0.00 0.07 0.02 68 1020.6
20260506171047 58 77 0.0 4.0 0.00 0.07 0.02 68 1020.6
20260506170549 57 43 0.0 4.0 0.00 0.07 0.02 68 1020.6
20260506165545 57 0 1.0 5.0 0.00 0.08 0.02 70 1020.5
20260506165046 57 155 0.0 5.0 0.00 0.08 0.02 70 1020.3
20260506164600 56 225 1.0 5.0 0.00 0.08 0.02 70 1020.2
20260506164044 56 215 1.0 4.0 0.00 0.08 0.02 69 1020.2
20260506163544 56 167 0.0 3.0 0.00 0.08 0.02 71 1020.1
20260506163105 55 0 0.0 2.0 0.00 0.08 0.02 70 1020.1
20260506162546 55 0 0.0 4.0 0.00 0.08 0.02 75 1020.0
20260506162047 54 0 0.0 4.0 0.00 0.08 0.02 75 1020.0
20260506161553 53 206 0.0 1.0 0.01 0.08 0.02 80 1020.0
20260506161045 52 0 0.0 2.0 0.01 0.08 0.02 81 1019.9
20260506160545 51 0 0.0 2.0 0.01 0.08 0.02 83 1019.9
20260506160053 50 0 0.0 2.0 0.01 0.08 0.02 83 1019.8
20260506155546 49 0 0.0 1.0 0.01 0.08 0.02 87 1019.8
20260506155048 48 0 0.0 1.0 0.01 0.08 0.02 90 1019.8
20260506154612 47 0 0.0 2.0 0.01 0.08 0.02 91 1019.8
20260506154045 46 0 0.0 2.0 0.01 0.08 0.02 93 1019.7
20260506153544 45 102 0.0 2.0 0.01 0.08 0.02 96 1019.7
20260506153055 44 0 0.0 2.0 0.01 0.08 0.02 96 1019.6
20260506152545 44 0 0.0 1.0 0.01 0.08 0.02 96 1019.6
20260506152045 44 0 0.0 2.0 0.01 0.08 0.02 96 1019.6
20260506151551 43 110 0.0 2.0 0.00 0.07 0.01 96 1019.7
20260506151044 43 0 0.0 2.0 0.00 0.07 0.01 96 1019.7
20260506150547 42 0 0.0 3.0 0.00 0.07 0.01 96 1019.7
20260506150056 42 0 0.0 3.0 0.00 0.07 0.01 96 1019.6
20260506145547 41 0 0.0 3.0 0.00 0.08 0.01 96 1019.6
20260506145050 41 0 0.0 3.0 0.00 0.08 0.01 96 1019.6
20260506144600 41 0 0.0 2.0 0.00 0.08 0.01 96 1019.7
20260506144048 40 0 0.0 2.0 0.00 0.08 0.01 96 1019.6
20260506143548 40 0 0.0 2.0 0.00 0.08 0.01 96 1019.6
20260506143055 40 0 0.0 2.0 0.00 0.08 0.01 96 1019.5
20260506142551 39 249 0.0 2.0 0.00 0.08 0.01 95 1019.4
20260506142046 39 0 0.0 1.0 0.00 0.08 0.01 95 1019.5
20260506141603 38 0 0.0 1.0 0.00 0.08 0.01 95 1019.4
20260506141045 38 0 0.0 1.0 0.00 0.08 0.01 95 1019.4
20260506140545 38 0 0.0 1.0 0.00 0.08 0.01 95 1019.3
20260506140112 37 0 0.0 1.0 0.00 0.08 0.01 95 1019.4
20260506135547 37 0 0.0 0.0 0.00 0.09 0.01 95 1019.3
20260506135044 37 0 0.0 2.0 0.00 0.09 0.01 95 1019.3
20260506134553 37 0 0.0 2.0 0.00 0.09 0.01 94 1019.3
20260506134044 37 0 0.0 0.0 0.00 0.09 0.01 94 1019.3
20260506133545 37 0 0.0 0.0 0.00 0.09 0.01 94 1019.2
20260506133057 36 0 0.0 0.0 0.00 0.09 0.01 94 1019.2
20260506132544 36 0 0.0 1.0 0.00 0.09 0.01 94 1019.1
20260506132045 36 0 0.0 1.0 0.00 0.09 0.01 94 1019.1
20260506131556 36 0 0.0 1.0 0.00 0.09 0.01 94 1019.0
20260506131045 36 0 0.0 1.0 0.00 0.09 0.01 94 1019.0
20260506130545 36 0 0.0 1.0 0.00 0.09 0.01 94 1018.8
20260506130059 36 0 0.0 0.0 0.00 0.09 0.01 94 1018.8
20260506125545 36 0 0.0 0.0 0.00 0.10 0.01 94 1018.8
20260506125045 36 0 0.0 0.0 0.00 0.10 0.01 94 1018.7
20260506124558 36 0 0.0 0.0 0.00 0.10 0.01 94 1018.7
20260506124048 36 0 0.0 0.0 0.00 0.10 0.01 94 1018.6
20260506123548 36 0 0.0 0.0 0.00 0.10 0.01 94 1018.6
20260506123054 36 0 0.0 0.0 0.00 0.10 0.01 94 1018.6
20260506122545 36 0 0.0 0.0 0.00 0.10 0.01 94 1018.5
20260506122045 36 0 0.0 0.0 0.00 0.10 0.01 94 1018.5
20260506121550 36 0 0.0 0.0 0.00 0.10 0.01 94 1018.5
20260506121044 36 0 0.0 0.0 0.00 0.10 0.01 94 1018.6
20260506120545 36 0 0.0 0.0 0.00 0.10 0.01 94 1018.5
20260506120055 37 0 0.0 1.0 0.00 0.10 0.01 94 1018.5
20260506115545 37 0 0.0 1.0 0.00 0.11 0.01 94 1018.5
20260506115048 37 0 0.0 1.0 0.00 0.11 0.01 94 1018.5
20260506114600 37 0 0.0 1.0 0.00 0.11 0.01 94 1018.5
20260506114048 37 0 0.0 1.0 0.00 0.11 0.01 94 1018.5
20260506113545 37 0 0.0 1.0 0.00 0.11 0.01 94 1018.5
20260506113059 37 0 0.0 1.0 0.00 0.11 0.01 94 1018.5
20260506112544 37 0 0.0 0.0 0.00 0.11 0.01 94 1018.5
20260506112044 37 0 0.0 1.0 0.00 0.11 0.01 93 1018.5
20260506111602 37 0 0.0 1.0 0.00 0.11 0.01 93 1018.4
20260506111046 37 0 0.0 1.0 0.00 0.11 0.01 93 1018.5
20260506110545 37 0 0.0 0.0 0.00 0.11 0.01 93 1018.4
20260506110050 37 0 0.0 1.0 0.00 0.11 0.01 93 1018.4
20260506105545 37 0 0.0 2.0 0.00 0.12 0.01 93 1018.4
20260506105044 37 0 0.0 2.0 0.00 0.12 0.01 93 1018.3
20260506104557 37 0 0.0 1.0 0.00 0.12 0.01 93 1018.3
20260506104048 37 0 0.0 1.0 0.00 0.12 0.01 93 1018.3
20260506103545 38 0 0.0 1.0 0.00 0.12 0.01 93 1018.3
20260506103101 38 0 0.0 0.0 0.00 0.12 0.01 93 1018.3
20260506102547 38 0 0.0 0.0 0.00 0.12 0.01 93 1018.3
20260506102044 39 0 0.0 0.0 0.00 0.12 0.01 93 1018.3
20260506101553 39 0 0.0 1.0 0.00 0.12 0.01 93 1018.3
20260506101046 39 0 0.0 1.0 0.00 0.12 0.01 94 1018.3
20260506100544 39 0 0.0 1.0 0.00 0.12 0.01 93 1018.3
20260506100100 39 0 0.0 1.0 0.00 0.12 0.01 94 1018.3
20260506095545 39 0 0.0 1.0 0.00 0.12 0.01 93 1018.4
20260506095047 39 0 0.0 2.0 0.00 0.12 0.01 93 1018.4
20260506094555 40 0 0.0 2.0 0.00 0.12 0.01 93 1018.3
20260506094044 40 0 0.0 2.0 0.00 0.12 0.01 93 1018.3
20260506093547 40 0 0.0 2.0 0.00 0.12 0.01 93 1018.3
20260506093051 40 0 0.0 2.0 0.00 0.12 0.01 93 1018.2
20260506092546 40 0 0.0 1.0 0.00 0.12 0.01 93 1018.2
20260506092044 40 0 0.0 1.0 0.00 0.12 0.01 93 1018.2
20260506091554 40 0 0.0 0.0 0.00 0.12 0.01 93 1018.3
20260506091047 40 0 0.0 0.0 0.00 0.12 0.01 93 1018.3
20260506090544 41 0 0.0 0.0 0.00 0.12 0.01 93 1018.4
20260506090050 41 0 0.0 0.0 0.00 0.12 0.01 93 1018.4
20260506085544 41 0 0.0 0.0 0.00 0.13 0.01 93 1018.4
20260506085047 41 0 0.0 0.0 0.00 0.13 0.01 93 1018.5
20260506084554 41 0 0.0 0.0 0.00 0.13 0.01 93 1018.7
20260506084045 41 0 0.0 1.0 0.01 0.13 0.01 93 1018.6
20260506083545 41 0 0.0 1.0 0.01 0.13 0.01 93 1018.7
20260506083052 41 0 0.0 1.0 0.01 0.13 0.01 93 1018.7
20260506082618 41 0 0.0 1.0 0.01 0.13 0.01 93 1018.8
20260506082045 41 0 0.0 1.0 0.01 0.13 0.01 93 1018.8
20260506081559 41 0 0.0 1.0 0.01 0.13 0.01 93 1018.8
20260506081045 41 0 0.0 1.0 0.01 0.13 0.01 93 1018.9
20260506080546 41 0 0.0 1.0 0.01 0.13 0.01 93 1018.9
20260506073058 41 168 0.0 6.0 0.00 0.14 0.00 93 1019.2
20260506072544 41 0 0.0 6.0 0.00 0.14 0.00 93 1019.2
20260506072044 41 224 1.0 5.0 0.00 0.14 0.00 93 1019.2
20260506071551 41 188 0.0 4.0 0.00 0.14 0.00 93 1019.2
20260506071046 41 0 0.0 4.0 0.00 0.14 0.00 93 1019.2
20260506070544 41 159 0.0 2.0 0.00 0.14 0.00 93 1019.2
20260506062045 41 158 0.0 1.0 0.00 0.15 0.14 92 1018.7
20260506061556 41 0 0.0 1.0 0.00 0.15 0.14 92 1018.8
20260506061048 41 0 0.0 1.0 0.00 0.15 0.14 92 1018.9
20260506060546 41 0 0.0 1.0 0.00 0.15 0.14 92 1018.9
20260506051046 42 0 0.0 1.0 0.00 0.16 0.14 92 1018.8
20260506050547 42 0 0.0 1.0 0.00 0.16 0.14 92 1018.8
20260506045049 42 0 0.0 3.0 0.01 0.17 0.14 92 1018.7
20260506044623 42 66 1.0 3.0 0.01 0.17 0.14 92 1018.7
20260506044046 42 0 0.0 3.0 0.01 0.17 0.14 92 1018.6
20260506043547 42 67 1.0 3.0 0.01 0.17 0.14 92 1018.5
20260506043054 42 0 1.0 3.0 0.01 0.17 0.14 92 1018.5
20260506042547 42 94 1.0 4.0 0.01 0.17 0.14 92 1018.5
20260506042046 42 167 1.0 4.0 0.01 0.17 0.14 92 1018.4
20260506041559 42 0 0.0 3.0 0.01 0.17 0.14 92 1018.3
20260506041044 42 97 0.0 3.0 0.01 0.17 0.14 92 1018.2
20260506040546 42 126 1.0 3.0 0.01 0.17 0.14 92 1018.2
20260506040056 42 0 1.0 3.0 0.01 0.17 0.14 91 1018.0
20260506035547 42 172 0.0 3.0 0.00 0.16 0.13 91 1018.0
20260506035045 42 129 0.0 4.0 0.00 0.16 0.13 91 1017.8
20260506034552 42 165 1.0 4.0 0.00 0.16 0.13 91 1017.7
20260506034046 42 144 0.0 3.0 0.00 0.16 0.13 91 1017.7
20260506033547 42 203 0.0 3.0 0.00 0.16 0.13 91 1017.6
20260506033054 42 0 1.0 3.0 0.00 0.16 0.13 91 1017.6
20260506032547 42 0 0.0 2.0 0.00 0.16 0.13 91 1017.4
20260506032047 43 0 0.0 2.0 0.00 0.16 0.13 91 1017.4
20260506031551 43 320 0.0 3.0 0.00 0.16 0.13 90 1017.4
20260506031045 43 275 0.0 3.0 0.00 0.16 0.13 90 1017.4
20260506030543 43 0 0.0 2.0 0.00 0.16 0.13 90 1017.3
20260506030057 43 182 1.0 4.0 0.00 0.16 0.13 89 1017.2
20260506025544 43 0 0.0 4.0 0.00 0.16 0.13 89 1017.1
20260506025047 43 162 1.0 4.0 0.00 0.16 0.13 89 1017.1
20260506024559 43 0 0.0 3.0 0.00 0.16 0.13 89 1017.0
20260506024045 43 156 0.0 1.0 0.00 0.16 0.13 88 1017.0
20260506023546 43 0 0.0 2.0 0.00 0.16 0.13 89 1016.9
20260506023100 43 67 0.0 4.0 0.00 0.16 0.13 88 1016.9
20260506022543 43 0 0.0 4.0 0.00 0.16 0.13 88 1016.8
20260506022045 44 0 0.0 3.0 0.00 0.16 0.13 88 1016.8
20260506021606 44 44 0.0 3.0 0.00 0.16 0.13 87 1016.7
20260506021044 44 0 0.0 3.0 0.00 0.16 0.13 87 1016.8
20260506020546 44 0 0.0 3.0 0.00 0.16 0.13 86 1016.7
20260506020049 44 0 1.0 4.0 0.00 0.16 0.13 85 1016.6
20260506015547 44 43 0.0 5.0 0.00 0.16 0.13 85 1016.6
20260506015047 44 209 1.0 5.0 0.00 0.16 0.13 85 1016.7
20260506014558 44 0 1.0 5.0 0.00 0.16 0.13 83 1016.5
20260506014044 44 142 1.0 5.0 0.00 0.16 0.13 83 1016.5
20260506013544 45 341 0.0 4.0 0.00 0.16 0.13 84 1016.5
20260506013104 45 0 0.0 4.0 0.00 0.16 0.13 84 1016.4
20260506012547 45 178 1.0 4.0 0.00 0.16 0.13 82 1016.4
20260506012047 45 0 1.0 3.0 0.00 0.16 0.13 81 1016.4
20260506011555 45 62 1.0 5.0 0.01 0.16 0.13 81 1016.5
20260506011048 45 0 1.0 6.0 0.01 0.16 0.13 81 1016.5
20260506010545 46 98 1.0 6.0 0.01 0.16 0.13 81 1016.4
20260506010112 46 0 2.0 5.0 0.01 0.16 0.13 81 1016.3
20260506005547 46 310 1.0 6.0 0.01 0.16 0.13 79 1016.3
20260506005044 46 273 2.0 6.0 0.01 0.16 0.13 78 1016.2
20260506004554 47 95 1.0 6.0 0.01 0.16 0.13 79 1016.2
20260506004048 47 309 0.0 4.0 0.01 0.16 0.13 78 1016.0
20260506003545 47 0 1.0 6.0 0.01 0.16 0.13 78 1016.1
20260506003052 47 351 1.0 6.0 0.01 0.16 0.13 75 1015.9
20260506002545 47 154 0.0 10.0 0.01 0.16 0.13 77 1015.9
20260506002045 47 242 1.0 10.0 0.00 0.15 0.12 78 1016.0
20260506001551 47 0 2.0 10.0 0.00 0.15 0.12 75 1015.8
20260506001045 47 338 2.0 8.0 0.00 0.15 0.12 76 1015.9
20260506000544 47 59 1.0 6.0 0.00 0.15 0.12 79 1015.9
20260506000056 47 0 1.0 9.0 0.00 0.15 0.12 79 1015.8
20260505235545 47 302 1.0 9.0 0.00 0.15 0.12 77 1015.9
20260505235048 48 142 2.0 7.0 0.00 0.15 0.12 73 1015.7
20260505234607 48 0 1.0 7.0 0.00 0.15 0.12 73 1015.7
20260505234045 48 0 1.0 8.0 0.00 0.15 0.12 76 1015.6
20260505233544 48 0 2.0 10.0 0.00 0.15 0.12 76 1015.7
20260505233049 48 170 2.0 11.0 0.00 0.15 0.12 74 1015.7
20260505232550 48 146 1.0 11.0 0.01 0.15 0.12 74 1015.6
20260505232046 48 230 2.0 7.0 0.01 0.15 0.12 76 1015.8
20260505231553 49 213 2.0 10.0 0.01 0.15 0.12 74 1015.7
20260505231046 49 294 2.0 17.0 0.01 0.15 0.12 74 1015.7
20260505230544 49 114 4.0 17.0 0.01 0.15 0.12 73 1015.7
20260505230053 48 172 1.0 10.0 0.01 0.15 0.12 78 1015.7
20260505225547 48 266 3.0 10.0 0.01 0.15 0.12 78 1015.7
20260505225048 48 27 2.0 6.0 0.01 0.15 0.12 81 1015.8
20260505224551 48 136 2.0 10.0 0.01 0.15 0.12 78 1015.8
20260505224049 48 0 2.0 10.0 0.01 0.15 0.12 78 1015.9
20260505223544 48 55 4.0 9.0 0.01 0.15 0.12 78 1015.9
20260505223050 48 0 2.0 9.0 0.01 0.15 0.12 80 1015.9
20260505222548 47 281 3.0 9.0 0.00 0.14 0.11 79 1016.1
20260505222044 47 202 2.0 11.0 0.00 0.14 0.11 80 1016.1
20260505221551 47 69 2.0 11.0 0.00 0.14 0.11 79 1016.1
20260505221052 48 152 2.0 7.0 0.00 0.14 0.11 82 1016.2
20260505220546 47 90 1.0 7.0 0.00 0.14 0.11 83 1016.1
20260505220056 46 275 2.0 11.0 0.00 0.14 0.11 81 1016.2
20260505215544 46 294 2.0 11.0 0.01 0.14 0.11 86 1016.2
20260505215052 46 312 3.0 9.0 0.01 0.14 0.11 84 1016.1
20260505214604 46 54 1.0 9.0 0.01 0.14 0.11 88 1016.1
20260505214047 46 0 1.0 9.0 0.01 0.14 0.11 87 1016.2
20260505213549 46 108 2.0 6.0 0.01 0.14 0.11 88 1016.2
20260505213059 46 131 2.0 8.0 0.01 0.14 0.11 90 1016.4
20260505212544 45 285 2.0 8.0 0.01 0.14 0.11 91 1016.4
20260505212046 45 60 1.0 7.0 0.01 0.14 0.11 92 1016.4
20260505211550 45 152 2.0 9.0 0.01 0.14 0.11 91 1016.3
20260505211044 45 155 2.0 9.0 0.01 0.14 0.11 91 1016.5
20260505210545 45 107 1.0 12.0 0.01 0.14 0.11 92 1016.3
20260505210058 45 123 1.0 12.0 0.01 0.14 0.11 93 1016.5
20260505205544 45 58 2.0 12.0 0.00 0.13 0.10 94 1016.6
20260505205049 45 217 1.0 6.0 0.00 0.13 0.10 94 1016.4
20260505204559 45 202 2.0 6.0 0.00 0.13 0.10 94 1016.6
20260505204044 44 84 1.0 7.0 0.00 0.13 0.10 94 1016.5
20260505203547 44 116 1.0 7.0 0.00 0.13 0.10 94 1016.5
20260505203056 45 99 2.0 7.0 0.00 0.13 0.10 95 1016.4
20260505202545 44 138 2.0 10.0 0.00 0.13 0.10 95 1016.5
20260505202045 43 131 1.0 10.0 0.00 0.13 0.10 95 1016.5
20260505201555 43 87 1.0 6.0 0.00 0.13 0.10 95 1016.6
20260505201044 43 199 2.0 6.0 0.00 0.13 0.10 95 1016.6
20260505200547 43 68 2.0 7.0 0.00 0.13 0.10 95 1016.7
20260505195545 43 78 1.0 8.0 0.00 0.13 0.10 95 1016.7
20260505195049 43 211 1.0 8.0 0.01 0.13 0.10 95 1016.6
20260505194557 42 0 0.0 8.0 0.01 0.13 0.10 95 1016.6
20260505194045 42 64 1.0 8.0 0.01 0.13 0.10 95 1016.7
20260505193546 42 0 1.0 7.0 0.01 0.13 0.10 95 1016.7
20260505193053 42 5 2.0 7.0 0.01 0.13 0.10 95 1016.9
20260505192543 42 148 2.0 5.0 0.01 0.13 0.10 95 1016.9
20260505192043 42 218 0.0 4.0 0.01 0.13 0.10 95 1016.8
20260505191551 42 61 1.0 6.0 0.01 0.13 0.10 95 1017.0
20260505191048 42 33 1.0 6.0 0.01 0.13 0.10 95 1016.9
20260505190545 42 171 1.0 6.0 0.01 0.13 0.10 95 1016.8
20260505190050 42 200 0.0 5.0 0.01 0.13 0.10 95 1016.8
20260505185547 42 150 2.0 11.0 0.01 0.13 0.10 95 1016.7
20260505185045 42 170 1.0 11.0 0.00 0.12 0.09 95 1016.7
20260505184552 42 141 2.0 7.0 0.00 0.12 0.09 95 1016.6
20260505184044 42 134 1.0 7.0 0.00 0.12 0.09 95 1016.7
20260505183548 42 36 1.0 10.0 0.00 0.12 0.09 95 1016.7
20260505183054 42 0 2.0 10.0 0.00 0.12 0.09 95 1016.5
20260505182547 42 63 0.0 6.0 0.00 0.12 0.09 95 1016.5
20260505182046 42 139 0.0 8.0 0.00 0.12 0.09 95 1016.5
20260505181550 42 84 3.0 8.0 0.00 0.12 0.09 95 1016.5
20260505181045 42 155 1.0 3.0 0.00 0.12 0.09 96 1016.5
20260505180550 42 240 1.0 6.0 0.00 0.12 0.09 95 1016.4
20260505180105 42 281 1.0 6.0 0.00 0.12 0.09 95 1016.4